QPF
0.00 0.01 0.01 0.01 0.02 0.02 0.02 0.01 0.00 0.01 0.01 0.01 0.01 0.01 0.01 0.02 0.05 0.07 0.06 0.05 0.05 0.09 0.11 0.12 0.07 0.06 0.08 0.06 0.04 0.05 0.05 0.05 0.06 0.09 0.10 0.09 0.09 0.14 0.22 0.30 0.35 0.37 0.41 0.36 0.31 0.27 0.19 0.16 0.14
0.01 0.01 0.01 0.01 0.02 0.02 0.01 0.01 0.01 0.00 0.00 0.00 0.00 0.00 0.00 0.02 0.04 0.04 0.05 0.06 0.09 0.18 0.21 0.17 0.10 0.08 0.07 0.05 0.05 0.06 0.06 0.06 0.07 0.09 0.10 0.11 0.11 0.13 0.18 0.21 0.23 0.28 0.32 0.29 0.25 0.19 0.13 0.10 0.08
0.02 0.01 0.01 0.01 0.01 0.00 0.01 0.01 0.00 0.00 0.00 0.00 0.00 0.00 0.01 0.02 0.04 0.04 0.06 0.09 0.14 0.20 0.26 0.25 0.12 0.07 0.05 0.07 0.11 0.10 0.09 0.07 0.06 0.07 0.11 0.11 0.11 0.12 0.13 0.15 0.17 0.18 0.19 0.15 0.12 0.10 0.08 0.07 0.06
0.01 0.01 0.01 0.01 0.00 0.00 0.01 0.01 0.00 0.00 0.00 0.00 0.00 0.01 0.01 0.03 0.03 0.04 0.06 0.09 0.11 0.18 0.23 0.25 0.12 0.05 0.07 0.16 0.14 0.09 0.07 0.06 0.06 0.06 0.10 0.13 0.12 0.14 0.12 0.13 0.13 0.12 0.12 0.10 0.09 0.09 0.09 0.08 0.05
0.00 0.01 0.01 0.00 0.00 0.01 0.01 0.01 0.01 0.01 0.01 0.01 0.00 0.00 0.02 0.02 0.02 0.03 0.05 0.09 0.15 0.21 0.19 0.15 0.11 0.05 0.07 0.13 0.12 0.08 0.05 0.04 0.07 0.09 0.11 0.16 0.20 0.18 0.10 0.08 0.08 0.08 0.09 0.08 0.08 0.09 0.10 0.08 0.07
0.01 0.02 0.01 0.00 0.00 0.01 0.01 0.01 0.01 0.00 0.01 0.01 0.00 0.00 0.02 0.02 0.01 0.03 0.04 0.07 0.11 0.12 0.09 0.07 0.08 0.04 0.05 0.07 0.07 0.07 0.05 0.05 0.13 0.19 0.21 0.25 0.25 0.17 0.08 0.08 0.08 0.07 0.09 0.08 0.06 0.10 0.10 0.07 0.07
0.02 0.02 0.01 0.01 0.01 0.01 0.01 0.01 0.01 0.00 0.00 0.00 0.00 0.01 0.02 0.02 0.03 0.03 0.02 0.03 0.03 0.03 0.03 0.04 0.06 0.04 0.04 0.06 0.07 0.11 0.10 0.09 0.12 0.19 0.23 0.21 0.18 0.13 0.08 0.09 0.08 0.06 0.06 0.07 0.07 0.09 0.07 0.05 0.05
0.02 0.01 0.01 0.01 0.01 0.02 0.01 0.01 0.00 0.00 0.00 0.00 0.00 0.00 0.01 0.02 0.04 0.04 0.02 0.02 0.02 0.03 0.03 0.03 0.04 0.02 0.03 0.05 0.08 0.11 0.16 0.16 0.16 0.19 0.19 0.15 0.13 0.10 0.10 0.09 0.08 0.08 0.06 0.07 0.08 0.09 0.05 0.04 0.04
0.02 0.01 0.01 0.01 0.01 0.01 0.01 0.00 0.00 0.00 0.00 0.00 0.00 0.00 0.01 0.01 0.02 0.02 0.02 0.02 0.02 0.04 0.04 0.03 0.02 0.01 0.01 0.03 0.06 0.08 0.10 0.16 0.19 0.19 0.17 0.13 0.09 0.12 0.14 0.10 0.10 0.09 0.08 0.07 0.08 0.08 0.05 0.05 0.05
0.02 0.01 0.00 0.00 0.00 0.00 0.00 0.00 0.00 0.00 0.01 0.01 0.01 0.00 0.00 0.01 0.01 0.01 0.02 0.02 0.02 0.03 0.02 0.02 0.02 0.01 0.01 0.02 0.04 0.05 0.07 0.09 0.10 0.12 0.12 0.09 0.09 0.15 0.20 0.18 0.13 0.10 0.09 0.07 0.08 0.08 0.07 0.05 0.05
0.01 0.01 0.00 0.00 0.00 0.00 0.00 0.00 0.00 0.00 0.00 0.00 0.00 0.00 0.00 0.01 0.01 0.02 0.02 0.02 0.04 0.03 0.03 0.02 0.02 0.02 0.01 0.01 0.01 0.02 0.03 0.05 0.06 0.07 0.06 0.05 0.08 0.13 0.17 0.18 0.16 0.13 0.10 0.08 0.09 0.07 0.05 0.04 0.04
0.00 0.00 0.00 0.00 0.01 0.00 0.00 0.00 0.01 0.00 0.00 0.00 0.01 0.00 0.00 0.01 0.01 0.01 0.02 0.02 0.03 0.03 0.03 0.04 0.02 0.01 0.01 0.01 0.00 0.01 0.01 0.02 0.03 0.04 0.04 0.04 0.09 0.12 0.10 0.11 0.10 0.09 0.08 0.06 0.06 0.05 0.04 0.04 0.03
0.00 0.00 0.00 0.00 0.00 0.01 0.00 0.00 0.00 0.00 0.00 0.00 0.01 0.00 0.00 0.00 0.01 0.01 0.01 0.02 0.02 0.02 0.02 0.02 0.02 0.01 0.01 0.01 0.00 0.00 0.01 0.01 0.01 0.01 0.01 0.02 0.05 0.07 0.08 0.07 0.05 0.06 0.07 0.05 0.03 0.03 0.03 0.03 0.03
0.00 0.00 0.00 0.01 0.01 0.01 0.00 0.00 0.00 0.00 0.00 0.00 0.00 0.00 0.00 0.00 0.00 0.01 0.01 0.01 0.01 0.01 0.01 0.01 0.01 0.01 0.01 0.01 0.01 0.01 0.01 0.01 0.01 0.01 0.01 0.01 0.01 0.03 0.07 0.06 0.06 0.06 0.06 0.06 0.04 0.04 0.05 0.04 0.04
0.00 0.00 0.00 0.00 0.01 0.01 0.01 0.01 0.00 0.00 0.00 0.00 0.00 0.00 0.00 0.00 0.00 0.00 0.00 0.01 0.01 0.01 0.01 0.01 0.01 0.02 0.02 0.02 0.02 0.01 0.01 0.01 0.01 0.02 0.01 0.01 0.01 0.02 0.05 0.06 0.04 0.05 0.05 0.06 0.05 0.04 0.05 0.05 0.05
0.00 0.00 0.00 0.00 0.00 0.01 0.01 0.01 0.01 0.00 0.00 0.00 0.00 0.00 0.00 0.00 0.00 0.00 0.00 0.00 0.01 0.01 0.01 0.01 0.01 0.02 0.02 0.02 0.03 0.01 0.01 0.01 0.01 0.02 0.02 0.01 0.02 0.02 0.03 0.05 0.05 0.04 0.05 0.05 0.06 0.06 0.06 0.06 0.05
0.00 0.00 0.00 0.00 0.01 0.01 0.01 0.01 0.01 0.01 0.00 0.00 0.00 0.00 0.00 0.01 0.01 0.00 0.00 0.01 0.01 0.01 0.02 0.01 0.01 0.02 0.03 0.03 0.03 0.01 0.02 0.02 0.01 0.02 0.02 0.02 0.02 0.02 0.03 0.04 0.03 0.02 0.02 0.03 0.04 0.05 0.05 0.04 0.03
0.00 0.00 0.00 0.00 0.01 0.01 0.00 0.01 0.01 0.00 0.00 0.00 0.00 0.00 0.01 0.01 0.01 0.00 0.00 0.00 0.01 0.02 0.03 0.02 0.02 0.03 0.06 0.07 0.04 0.02 0.02 0.02 0.02 0.01 0.01 0.02 0.03 0.03 0.03 0.03 0.03 0.02 0.01 0.02 0.02 0.02 0.03 0.03 0.03
0.01 0.00 0.00 0.00 0.01 0.01 0.01 0.01 0.01 0.00 0.00 0.00 0.00 0.00 0.01 0.01 0.01 0.01 0.01 0.00 0.01 0.01 0.01 0.01 0.02 0.05 0.08 0.08 0.04 0.02 0.02 0.01 0.01 0.01 0.01 0.03 0.04 0.04 0.04 0.03 0.03 0.02 0.02 0.02 0.02 0.02 0.02 0.03 0.02
0.00 0.00 0.00 0.00 0.00 0.01 0.01 0.01 0.00 0.00 0.00 0.00 0.00 0.00 0.01 0.01 0.01 0.01 0.01 0.00 0.00 0.00 0.01 0.01 0.01 0.02 0.03 0.04 0.04 0.02 0.01 0.01 0.01 0.01 0.01 0.02 0.04 0.04 0.04 0.04 0.05 0.03 0.02 0.01 0.02 0.03 0.03 0.02 0.02
0.00 0.00 0.01 0.00 0.01 0.01 0.01 0.01 0.00 0.00 0.00 0.00 0.00 0.00 0.01 0.01 0.01 0.00 0.00 0.00 0.00 0.00 0.01 0.01 0.02 0.01 0.02 0.02 0.02 0.03 0.02 0.02 0.02 0.03 0.04 0.04 0.05 0.05 0.06 0.06 0.05 0.04 0.02 0.02 0.03 0.03 0.02 0.02 0.02
0.00 0.00 0.00 0.00 0.00 0.01 0.01 0.00 0.00 0.00 0.00 0.00 0.00 0.00 0.00 0.00 0.00 0.00 0.00 0.00 0.00 0.00 0.00 0.00 0.00 0.00 0.01 0.01 0.01 0.01 0.02 0.03 0.03 0.05 0.07 0.07 0.07 0.06 0.07 0.05 0.04 0.04 0.03 0.03 0.03 0.03 0.02 0.02 0.02
0.00 0.00 0.00 0.00 0.00 0.01 0.00 0.00 0.00 0.00 0.00 0.00 0.00 0.00 0.00 0.00 0.00 0.00 0.00 0.00 0.00 0.00 0.00 0.00 0.00 0.00 0.00 0.00 0.01 0.01 0.02 0.04 0.05 0.05 0.07 0.08 0.06 0.05 0.06 0.05 0.04 0.04 0.04 0.04 0.03 0.01 0.02 0.02 0.03
0.00 0.00 0.00 0.00 0.00 0.01 0.00 0.00 0.00 0.00 0.00 0.00 0.00 0.00 0.00 0.00 0.00 0.00 0.00 0.00 0.00 0.00 0.00 0.00 0.00 0.00 0.00 0.00 0.01 0.01 0.01 0.03 0.04 0.04 0.05 0.07 0.07 0.06 0.05 0.04 0.04 0.04 0.04 0.04 0.03 0.02 0.03 0.03 0.02
0.00 0.00 0.00 0.00 0.00 0.00 0.00 0.00 0.00 0.00 0.00 0.00 0.00 0.00 0.00 0.00 0.00 0.00 0.00 0.00 0.00 0.00 0.00 0.00 0.01 0.01 0.01 0.01 0.01 0.01 0.01 0.01 0.04 0.05 0.04 0.06 0.07 0.05 0.03 0.03 0.03 0.03 0.03 0.03 0.04 0.04 0.04 0.04 0.04
0.00 0.00 0.00 0.00 0.00 0.00 0.00 0.00 0.00 0.00 0.00 0.00 0.00 0.00 0.00 0.00 0.00 0.00 0.00 0.00 0.00 0.01 0.02 0.02 0.02 0.02 0.03 0.02 0.01 0.02 0.01 0.01 0.01 0.02 0.02 0.02 0.02 0.01 0.01 0.02 0.03 0.03 0.03 0.03 0.03 0.04 0.04 0.03 0.03
0.00 0.00 0.00 0.00 0.00 0.00 0.00 0.00 0.00 0.00 0.00 0.00 0.00 0.00 0.00 0.00 0.00 0.00 0.01 0.01 0.01 0.03 0.04 0.06 0.06 0.04 0.04 0.04 0.02 0.01 0.01 0.01 0.02 0.02 0.02 0.02 0.01 0.01 0.02 0.03 0.03 0.02 0.03 0.04 0.04 0.04 0.04 0.03 0.03
0.00 0.00 0.00 0.00 0.00 0.00 0.00 0.00 0.00 0.00 0.00 0.00 0.00 0.00 0.00 0.00 0.00 0.00 0.01 0.01 0.03 0.05 0.08 0.10 0.09 0.08 0.07 0.04 0.03 0.02 0.02 0.02 0.03 0.03 0.02 0.01 0.02 0.04 0.04 0.05 0.04 0.02 0.03 0.04 0.04 0.04 0.03 0.03 0.04
0.00 0.00 0.00 0.00 0.00 0.00 0.00 0.00 0.00 0.00 0.00 0.00 0.00 0.00 0.00 0.00 0.00 0.01 0.01 0.02 0.03 0.06 0.10 0.13 0.12 0.11 0.09 0.05 0.02 0.02 0.03 0.03 0.04 0.05 0.03 0.03 0.04 0.06 0.07 0.06 0.03 0.02 0.02 0.03 0.04 0.03 0.03 0.03 0.03
0.00 0.00 0.00 0.00 0.00 0.00 0.00 0.00 0.00 0.00 0.00 0.00 0.00 0.00 0.00 0.00 0.01 0.01 0.04 0.06 0.05 0.06 0.08 0.09 0.07 0.06 0.06 0.05 0.03 0.03 0.03 0.03 0.04 0.05 0.04 0.03 0.04 0.05 0.05 0.04 0.03 0.04 0.03 0.03 0.03 0.02 0.03 0.03 0.03
MSLP
1005.70 1006.82 1008.15 1009.53 1010.79 1011.79 1012.44 1012.74 1012.73 1012.54 1012.27 1012.05 1011.94 1011.95 1012.04 1012.13 1012.14 1011.99 1011.67 1011.17 1010.57 1009.94 1009.35 1008.87 1008.52 1008.29 1008.16 1008.06 1007.97 1007.84 1007.69 1007.53 1007.41 1007.36 1007.40 1007.54 1007.76 1008.03 1008.32 1008.58 1008.81 1009.01 1009.21 1009.42 1009.69 1010.01 1010.39 1010.82 1011.27
1006.23 1007.50 1008.93 1010.33 1011.53 1012.39 1012.86 1012.94 1012.71 1012.30 1011.85 1011.49 1011.28 1011.24 1011.33 1011.47 1011.56 1011.52 1011.33 1010.98 1010.53 1010.03 1009.55 1009.15 1008.86 1008.66 1008.53 1008.43 1008.33 1008.23 1008.11 1008.02 1007.97 1008.00 1008.11 1008.29 1008.53 1008.78 1009.02 1009.22 1009.39 1009.53 1009.68 1009.87 1010.11 1010.43 1010.80 1011.22 1011.64
1006.90 1008.29 1009.75 1011.11 1012.20 1012.90 1013.18 1013.06 1012.64 1012.05 1011.47 1011.01 1010.74 1010.67 1010.75 1010.91 1011.05 1011.10 1011.01 1010.79 1010.46 1010.08 1009.72 1009.42 1009.19 1009.03 1008.92 1008.84 1008.76 1008.67 1008.59 1008.54 1008.55 1008.63 1008.77 1008.97 1009.21 1009.44 1009.64 1009.80 1009.92 1010.04 1010.18 1010.36 1010.61 1010.93 1011.30 1011.70 1012.09
1007.64 1009.08 1010.52 1011.78 1012.72 1013.25 1013.35 1013.07 1012.51 1011.83 1011.18 1010.67 1010.37 1010.29 1010.37 1010.53 1010.70 1010.79 1010.77 1010.64 1010.42 1010.16 1009.91 1009.70 1009.55 1009.45 1009.38 1009.32 1009.25 1009.19 1009.13 1009.11 1009.14 1009.24 1009.40 1009.61 1009.82 1010.03 1010.20 1010.34 1010.46 1010.58 1010.73 1010.94 1011.21 1011.53 1011.90 1012.27 1012.63
1008.36 1009.78 1011.12 1012.23 1013.00 1013.36 1013.32 1012.93 1012.32 1011.62 1010.98 1010.49 1010.21 1010.13 1010.21 1010.37 1010.53 1010.64 1010.65 1010.58 1010.45 1010.29 1010.14 1010.03 1009.96 1009.92 1009.89 1009.86 1009.81 1009.76 1009.72 1009.70 1009.75 1009.85 1010.00 1010.19 1010.39 1010.58 1010.75 1010.88 1011.01 1011.16 1011.34 1011.57 1011.86 1012.19 1012.55 1012.89 1013.21
1008.96 1010.28 1011.46 1012.39 1012.97 1013.19 1013.04 1012.62 1012.03 1011.40 1010.84 1010.44 1010.22 1010.17 1010.26 1010.41 1010.55 1010.65 1010.68 1010.65 1010.58 1010.50 1010.44 1010.42 1010.42 1010.44 1010.45 1010.44 1010.41 1010.36 1010.31 1010.30 1010.33 1010.42 1010.56 1010.74 1010.92 1011.10 1011.27 1011.42 1011.57 1011.74 1011.95 1012.21 1012.51 1012.84 1013.17 1013.48 1013.74
1009.36 1010.52 1011.50 1012.22 1012.63 1012.72 1012.53 1012.14 1011.65 1011.15 1010.74 1010.47 1010.35 1010.37 1010.47 1010.61 1010.74 1010.82 1010.85 1010.83 1010.81 1010.79 1010.80 1010.85 1010.91 1010.97 1011.01 1011.01 1010.98 1010.92 1010.87 1010.84 1010.87 1010.95 1011.08 1011.24 1011.42 1011.60 1011.76 1011.92 1012.09 1012.28 1012.51 1012.78 1013.07 1013.38 1013.68 1013.94 1014.16
1009.54 1010.50 1011.25 1011.76 1012.01 1012.01 1011.83 1011.52 1011.18 1010.87 1010.65 1010.54 1010.55 1010.64 1010.77 1010.91 1011.01 1011.07 1011.09 1011.09 1011.10 1011.12 1011.19 1011.28 1011.38 1011.46 1011.51 1011.51 1011.48 1011.41 1011.35 1011.32 1011.34 1011.41 1011.54 1011.70 1011.87 1012.05 1012.22 1012.38 1012.55 1012.75 1012.97 1013.22 1013.50 1013.77 1014.03 1014.24 1014.41
1009.52 1010.27 1010.80 1011.11 1011.23 1011.18 1011.03 1010.84 1010.67 1010.56 1010.54 1010.60 1010.73 1010.90 1011.06 1011.20 1011.29 1011.33 1011.34 1011.35 1011.38 1011.44 1011.53 1011.65 1011.76 1011.86 1011.90 1011.90 1011.86 1011.79 1011.74 1011.71 1011.74 1011.82 1011.95 1012.12 1012.30 1012.47 1012.64 1012.79 1012.95 1013.12 1013.32 1013.53 1013.76 1013.99 1014.20 1014.37 1014.50
1009.38 1009.92 1010.26 1010.41 1010.43 1010.36 1010.27 1010.20 1010.19 1010.26 1010.41 1010.62 1010.85 1011.08 1011.26 1011.40 1011.48 1011.51 1011.52 1011.54 1011.59 1011.67 1011.78 1011.91 1012.03 1012.12 1012.16 1012.15 1012.11 1012.06 1012.01 1012.01 1012.06 1012.16 1012.32 1012.49 1012.68 1012.85 1013.01 1013.14 1013.27 1013.41 1013.56 1013.72 1013.90 1014.08 1014.25 1014.38 1014.48
1009.21 1009.59 1009.77 1009.80 1009.76 1009.69 1009.65 1009.68 1009.80 1010.01 1010.28 1010.57 1010.86 1011.11 1011.31 1011.43 1011.50 1011.54 1011.56 1011.59 1011.66 1011.76 1011.88 1012.02 1012.14 1012.23 1012.27 1012.27 1012.24 1012.21 1012.20 1012.23 1012.31 1012.45 1012.63 1012.82 1013.01 1013.18 1013.32 1013.44 1013.53 1013.62 1013.72 1013.84 1013.97 1014.10 1014.22 1014.33 1014.41
1009.14 1009.39 1009.46 1009.42 1009.33 1009.27 1009.28 1009.37 1009.57 1009.83 1010.14 1010.46 1010.74 1010.98 1011.15 1011.27 1011.33 1011.37 1011.42 1011.48 1011.57 1011.69 1011.84 1011.98 1012.11 1012.20 1012.25 1012.27 1012.27 1012.27 1012.30 1012.38 1012.50 1012.67 1012.87 1013.08 1013.28 1013.45 1013.57 1013.66 1013.73 1013.78 1013.84 1013.92 1014.01 1014.11 1014.20 1014.29 1014.35
1009.22 1009.40 1009.41 1009.33 1009.23 1009.17 1009.19 1009.30 1009.50 1009.74 1010.02 1010.28 1010.50 1010.68 1010.81 1010.90 1010.96 1011.02 1011.10 1011.20 1011.33 1011.48 1011.65 1011.81 1011.95 1012.06 1012.14 1012.19 1012.23 1012.28 1012.36 1012.47 1012.63 1012.82 1013.04 1013.25 1013.45 1013.61 1013.73 1013.80 1013.85 1013.89 1013.93 1013.98 1014.05 1014.13 1014.21 1014.29 1014.34
1009.51 1009.65 1009.63 1009.54 1009.44 1009.38 1009.39 1009.46 1009.59 1009.74 1009.90 1010.04 1010.16 1010.24 1010.31 1010.37 1010.43 1010.52 1010.64 1010.79 1010.97 1011.16 1011.36 1011.54 1011.71 1011.86 1011.97 1012.07 1012.16 1012.26 1012.37 1012.52 1012.69 1012.88 1013.09 1013.29 1013.48 1013.63 1013.75 1013.83 1013.88 1013.92 1013.97 1014.02 1014.09 1014.17 1014.26 1014.33 1014.37
1009.97 1010.09 1010.08 1010.00 1009.91 1009.84 1009.80 1009.80 1009.80 1009.81 1009.80 1009.78 1009.74 1009.72 1009.71 1009.74 1009.82 1009.95 1010.12 1010.33 1010.55 1010.79 1011.02 1011.24 1011.45 1011.63 1011.79 1011.94 1012.08 1012.22 1012.36 1012.51 1012.67 1012.85 1013.02 1013.19 1013.35 1013.49 1013.61 1013.71 1013.79 1013.86 1013.93 1014.01 1014.10 1014.20 1014.29 1014.36 1014.40
1010.51 1010.63 1010.64 1010.58 1010.51 1010.43 1010.34 1010.23 1010.09 1009.91 1009.71 1009.50 1009.31 1009.17 1009.10 1009.11 1009.21 1009.38 1009.61 1009.87 1010.15 1010.42 1010.69 1010.94 1011.18 1011.41 1011.62 1011.82 1012.01 1012.17 1012.32 1012.46 1012.59 1012.71 1012.83 1012.95 1013.08 1013.20 1013.33 1013.45 1013.56 1013.68 1013.80 1013.92 1014.04 1014.17 1014.27 1014.35 1014.38
1011.01 1011.15 1011.19 1011.19 1011.14 1011.06 1010.91 1010.69 1010.40 1010.03 1009.63 1009.24 1008.90 1008.65 1008.53 1008.54 1008.67 1008.89 1009.17 1009.49 1009.80 1010.11 1010.40 1010.68 1010.95 1011.22 1011.47 1011.72 1011.94 1012.12 1012.27 1012.37 1012.44 1012.50 1012.55 1012.61 1012.69 1012.80 1012.93 1013.08 1013.24 1013.41 1013.57 1013.74 1013.90 1014.05 1014.17 1014.26 1014.29
1011.36 1011.53 1011.64 1011.70 1011.71 1011.64 1011.45 1011.14 1010.70 1010.15 1009.57 1009.01 1008.54 1008.21 1008.05 1008.07 1008.23 1008.51 1008.84 1009.20 1009.54 1009.86 1010.17 1010.46 1010.75 1011.04 1011.34 1011.62 1011.87 1012.06 1012.20 1012.27 1012.28 1012.26 1012.24 1012.23 1012.27 1012.35 1012.49 1012.67 1012.87 1013.08 1013.29 1013.50 1013.68 1013.85 1013.98 1014.08 1014.13
1011.49 1011.71 1011.91 1012.07 1012.16 1012.13 1011.93 1011.54 1010.98 1010.28 1009.54 1008.83 1008.25 1007.86 1007.68 1007.71 1007.92 1008.24 1008.62 1009.00 1009.36 1009.68 1009.98 1010.27 1010.57 1010.88 1011.20 1011.52 1011.79 1012.00 1012.13 1012.16 1012.13 1012.04 1011.96 1011.90 1011.89 1011.96 1012.10 1012.30 1012.54 1012.78 1013.02 1013.24 1013.44 1013.61 1013.75 1013.86 1013.93
1011.35 1011.66 1011.99 1012.29 1012.50 1012.54 1012.35 1011.91 1011.25 1010.42 1009.54 1008.71 1008.04 1007.60 1007.41 1007.46 1007.71 1008.08 1008.48 1008.88 1009.24 1009.55 1009.82 1010.10 1010.39 1010.72 1011.07 1011.41 1011.72 1011.95 1012.07 1012.10 1012.03 1011.90 1011.77 1011.68 1011.65 1011.71 1011.85 1012.07 1012.32 1012.58 1012.83 1013.05 1013.24 1013.39 1013.53 1013.64 1013.73
1011.00 1011.44 1011.93 1012.40 1012.76 1012.89 1012.74 1012.27 1011.53 1010.59 1009.59 1008.66 1007.91 1007.43 1007.23 1007.30 1007.58 1007.97 1008.40 1008.80 1009.15 1009.43 1009.69 1009.94 1010.23 1010.56 1010.93 1011.31 1011.65 1011.91 1012.05 1012.08 1012.01 1011.88 1011.73 1011.62 1011.59 1011.65 1011.80 1012.03 1012.28 1012.54 1012.78 1012.97 1013.12 1013.25 1013.36 1013.47 1013.58
1010.54 1011.14 1011.82 1012.49 1013.01 1013.25 1013.14 1012.66 1011.84 1010.81 1009.70 1008.67 1007.85 1007.33 1007.12 1007.20 1007.49 1007.91 1008.35 1008.75 1009.08 1009.34 1009.57 1009.81 1010.09 1010.43 1010.82 1011.22 1011.60 1011.90 1012.08 1012.14 1012.09 1011.97 1011.83 1011.74 1011.71 1011.79 1011.95 1012.18 1012.43 1012.67 1012.87 1013.02 1013.13 1013.21 1013.28 1013.37 1013.48
1010.11 1010.88 1011.77 1012.64 1013.30 1013.65 1013.58 1013.07 1012.20 1011.07 1009.87 1008.75 1007.86 1007.30 1007.07 1007.15 1007.46 1007.88 1008.33 1008.72 1009.04 1009.29 1009.50 1009.72 1009.99 1010.34 1010.75 1011.18 1011.60 1011.94 1012.17 1012.26 1012.25 1012.16 1012.06 1011.98 1011.98 1012.08 1012.25 1012.48 1012.72 1012.93 1013.10 1013.20 1013.24 1013.26 1013.29 1013.34 1013.44
1009.84 1010.79 1011.86 1012.89 1013.68 1014.10 1014.05 1013.52 1012.59 1011.38 1010.09 1008.90 1007.95 1007.35 1007.11 1007.18 1007.49 1007.92 1008.37 1008.77 1009.07 1009.31 1009.50 1009.71 1009.99 1010.34 1010.76 1011.22 1011.67 1012.04 1012.31 1012.44 1012.46 1012.42 1012.35 1012.31 1012.33 1012.45 1012.63 1012.86 1013.08 1013.27 1013.39 1013.44 1013.43 1013.39 1013.36 1013.37 1013.45
1009.84 1010.92 1012.13 1013.26 1014.14 1014.59 1014.53 1013.97 1012.97 1011.70 1010.35 1009.12 1008.14 1007.51 1007.26 1007.34 1007.65 1008.08 1008.53 1008.92 1009.22 1009.45 1009.64 1009.84 1010.12 1010.47 1010.90 1011.37 1011.83 1012.22 1012.50 1012.67 1012.72 1012.70 1012.66 1012.65 1012.70 1012.82 1013.01 1013.24 1013.45 1013.61 1013.70 1013.70 1013.64 1013.55 1013.47 1013.44 1013.48
1010.15 1011.30 1012.56 1013.73 1014.61 1015.04 1014.95 1014.35 1013.31 1012.01 1010.64 1009.40 1008.42 1007.81 1007.57 1007.66 1007.97 1008.41 1008.85 1009.23 1009.53 1009.75 1009.94 1010.14 1010.40 1010.75 1011.17 1011.64 1012.09 1012.48 1012.77 1012.94 1013.00 1013.00 1012.97 1012.97 1013.03 1013.17 1013.36 1013.58 1013.78 1013.92 1013.98 1013.96 1013.87 1013.74 1013.62 1013.55 1013.55
1010.73 1011.87 1013.10 1014.21 1015.02 1015.38 1015.23 1014.58 1013.54 1012.24 1010.91 1009.72 1008.80 1008.25 1008.05 1008.16 1008.49 1008.93 1009.36 1009.74 1010.02 1010.23 1010.41 1010.60 1010.85 1011.19 1011.59 1012.03 1012.46 1012.83 1013.11 1013.26 1013.32 1013.31 1013.29 1013.29 1013.35 1013.48 1013.66 1013.87 1014.06 1014.19 1014.25 1014.21 1014.11 1013.96 1013.82 1013.72 1013.69
1011.50 1012.53 1013.63 1014.60 1015.27 1015.52 1015.29 1014.61 1013.58 1012.36 1011.13 1010.06 1009.26 1008.80 1008.68 1008.85 1009.20 1009.64 1010.06 1010.42 1010.68 1010.87 1011.03 1011.21 1011.45 1011.76 1012.14 1012.55 1012.94 1013.28 1013.52 1013.66 1013.69 1013.67 1013.64 1013.63 1013.68 1013.79 1013.96 1014.16 1014.34 1014.47 1014.52 1014.49 1014.39 1014.25 1014.10 1013.99 1013.93
1012.33 1013.17 1014.05 1014.80 1015.27 1015.36 1015.05 1014.36 1013.39 1012.30 1011.24 1010.35 1009.73 1009.43 1009.43 1009.66 1010.05 1010.49 1010.89 1011.22 1011.46 1011.62 1011.76 1011.92 1012.14 1012.42 1012.77 1013.15 1013.51 1013.82 1014.03 1014.14 1014.16 1014.12 1014.07 1014.05 1014.09 1014.18 1014.34 1014.52 1014.68 1014.80 1014.86 1014.84 1014.76 1014.63 1014.50 1014.39 1014.33
1013.07 1013.66 1014.26 1014.73 1014.97 1014.89 1014.49 1013.82 1012.96 1012.04 1011.20 1010.55 1010.16 1010.05 1010.19 1010.52 1010.95 1011.39 1011.77 1012.07 1012.27 1012.41 1012.52 1012.66 1012.86 1013.13 1013.45 1013.80 1014.14 1014.42 1014.61 1014.70 1014.72 1014.68 1014.63 1014.60 1014.63 1014.71 1014.84 1015.00 1015.15 1015.26 1015.31 1015.30 1015.23 1015.13 1015.02 1014.92 1014.85
Thickness
5812 5810 5806 5795 5774 5754 5751 5764 5773 5772 5773 5781 5783 5779 5772 5765 5760 5758 5779 5788 5789 5789 5790 5790 5790 5790 5790 5791 5791 5792 5792 5792 5793 5794 5794 5794 5794 5793 5792 5791 5789 5787 5786 5784 5782 5779 5777 5776 5774
5813 5809 5800 5785 5759 5740 5749 5768 5770 5775 5780 5785 5784 5779 5773 5769 5775 5776 5781 5786 5788 5789 5789 5789 5789 5789 5789 5789 5790 5790 5790 5791 5791 5792 5792 5792 5791 5791 5790 5789 5788 5786 5784 5782 5780 5778 5775 5773 5772
5814 5810 5791 5773 5756 5747 5756 5772 5775 5781 5787 5786 5780 5778 5773 5770 5776 5778 5783 5786 5787 5788 5788 5788 5788 5787 5787 5787 5788 5788 5789 5789 5789 5789 5789 5789 5789 5788 5788 5787 5786 5784 5783 5781 5779 5776 5774 5772 5770
5812 5800 5787 5768 5759 5767 5772 5778 5782 5781 5784 5786 5779 5772 5775 5781 5782 5784 5787 5788 5786 5786 5787 5787 5787 5786 5786 5786 5786 5787 5788 5788 5788 5787 5787 5787 5787 5786 5785 5785 5784 5782 5781 5779 5777 5775 5773 5771 5769
5810 5791 5772 5759 5765 5778 5785 5788 5787 5780 5779 5780 5778 5768 5769 5781 5787 5787 5786 5787 5785 5784 5786 5786 5786 5785 5784 5784 5784 5786 5787 5787 5787 5786 5785 5785 5784 5784 5783 5783 5782 5780 5779 5777 5775 5773 5772 5770 5768
5796 5784 5759 5753 5767 5781 5788 5791 5787 5780 5779 5780 5776 5768 5768 5781 5784 5784 5785 5784 5784 5784 5784 5784 5784 5783 5783 5783 5783 5784 5785 5785 5785 5785 5784 5783 5782 5781 5781 5781 5780 5779 5778 5776 5774 5772 5770 5769 5768
5791 5776 5764 5764 5767 5776 5787 5794 5786 5780 5778 5780 5780 5766 5769 5778 5784 5785 5785 5784 5783 5783 5783 5783 5783 5782 5782 5781 5781 5782 5782 5783 5783 5782 5781 5780 5780 5780 5780 5780 5779 5778 5777 5775 5773 5771 5770 5768 5767
5800 5781 5770 5768 5770 5775 5792 5795 5793 5787 5782 5790 5786 5769 5767 5778 5785 5785 5784 5782 5782 5782 5782 5781 5781 5781 5780 5780 5779 5780 5780 5780 5780 5780 5780 5779 5778 5778 5778 5778 5778 5777 5775 5773 5772 5770 5769 5767 5766
5806 5777 5765 5773 5776 5783 5795 5792 5794 5798 5790 5789 5789 5784 5784 5787 5786 5782 5779 5778 5779 5780 5780 5780 5780 5780 5779 5779 5778 5778 5778 5778 5778 5777 5777 5777 5776 5776 5777 5777 5776 5775 5774 5772 5771 5769 5768 5767 5765
5797 5773 5780 5794 5796 5795 5798 5795 5793 5790 5784 5783 5784 5787 5789 5787 5783 5779 5777 5775 5776 5777 5779 5780 5780 5780 5779 5779 5778 5777 5777 5776 5776 5775 5775 5775 5775 5775 5775 5775 5775 5774 5773 5771 5770 5768 5767 5766 5764
5799 5789 5799 5806 5809 5807 5800 5797 5800 5787 5778 5784 5783 5784 5786 5784 5782 5779 5778 5778 5778 5779 5780 5781 5781 5780 5779 5778 5778 5776 5775 5775 5775 5775 5774 5774 5773 5773 5773 5773 5773 5772 5771 5770 5769 5767 5766 5765 5763
5803 5805 5810 5812 5815 5810 5803 5801 5796 5793 5792 5800 5797 5793 5788 5784 5782 5780 5779 5779 5779 5780 5780 5781 5782 5780 5779 5778 5777 5776 5775 5774 5774 5773 5773 5773 5772 5772 5772 5771 5771 5770 5770 5769 5768 5766 5765 5764 5762
5806 5809 5816 5818 5815 5812 5807 5801 5798 5797 5803 5804 5799 5793 5789 5786 5784 5784 5783 5782 5781 5780 5781 5782 5782 5781 5780 5779 5778 5777 5776 5775 5774 5773 5773 5773 5771 5771 5771 5770 5770 5769 5769 5768 5767 5766 5764 5763 5762
5812 5812 5813 5814 5813 5813 5804 5800 5799 5797 5803 5799 5795 5791 5790 5788 5787 5785 5783 5781 5781 5782 5782 5783 5783 5782 5781 5779 5778 5778 5777 5776 5775 5774 5774 5773 5772 5771 5770 5770 5769 5769 5768 5767 5767 5765 5764 5762 5762
5817 5807 5805 5808 5810 5809 5804 5791 5796 5802 5802 5796 5793 5792 5791 5790 5790 5787 5787 5785 5785 5785 5785 5784 5784 5783 5781 5780 5779 5778 5777 5777 5776 5775 5774 5774 5773 5772 5771 5770 5769 5769 5768 5767 5766 5765 5763 5762 5761
5808 5794 5784 5799 5806 5807 5797 5778 5798 5805 5800 5794 5793 5793 5791 5791 5792 5792 5792 5790 5789 5788 5786 5785 5786 5784 5782 5781 5780 5779 5779 5777 5776 5775 5775 5774 5773 5772 5771 5770 5770 5769 5768 5767 5765 5764 5762 5760 5759
5786 5776 5779 5792 5806 5804 5795 5785 5801 5806 5801 5795 5794 5794 5793 5792 5793 5795 5795 5794 5792 5790 5789 5786 5786 5785 5783 5782 5781 5780 5779 5778 5777 5776 5776 5775 5774 5773 5772 5771 5770 5769 5767 5766 5765 5762 5761 5758 5757
5776 5779 5782 5785 5801 5800 5791 5791 5801 5805 5802 5798 5797 5796 5795 5794 5796 5798 5798 5797 5795 5793 5791 5789 5787 5786 5785 5783 5781 5779 5779 5778 5778 5777 5777 5776 5775 5774 5773 5771 5770 5768 5766 5765 5763 5761 5760 5758 5756
5794 5786 5782 5791 5805 5797 5790 5792 5799 5803 5802 5799 5798 5797 5797 5798 5801 5802 5800 5799 5796 5793 5791 5789 5787 5786 5785 5782 5780 5778 5777 5778 5778 5778 5778 5778 5776 5775 5773 5772 5770 5769 5766 5764 5763 5761 5759 5756 5756
5793 5785 5785 5794 5805 5798 5789 5792 5801 5804 5805 5807 5804 5802 5801 5799 5800 5801 5801 5800 5797 5795 5793 5791 5789 5788 5787 5785 5783 5781 5780 5779 5779 5779 5779 5778 5777 5776 5774 5772 5771 5769 5766 5764 5762 5761 5757 5755 5754
5790 5786 5787 5788 5795 5797 5790 5784 5794 5804 5809 5810 5811 5810 5808 5806 5803 5802 5802 5801 5799 5797 5796 5795 5792 5790 5788 5787 5784 5782 5780 5778 5777 5777 5777 5778 5777 5776 5775 5773 5771 5769 5767 5764 5763 5761 5758 5754 5753
5784 5800 5798 5791 5777 5768 5778 5758 5786 5796 5800 5806 5810 5812 5812 5812 5810 5807 5805 5803 5802 5802 5801 5798 5794 5792 5790 5788 5785 5782 5778 5775 5776 5776 5777 5777 5777 5776 5775 5773 5772 5769 5768 5765 5764 5762 5759 5756 5752
5797 5806 5797 5788 5774 5765 5769 5760 5774 5792 5792 5802 5812 5816 5817 5817 5815 5812 5811 5809 5808 5806 5803 5800 5796 5793 5792 5790 5787 5783 5780 5779 5778 5777 5776 5776 5776 5776 5775 5773 5772 5770 5768 5766 5764 5762 5760 5758 5754
5806 5794 5783 5769 5760 5747 5762 5757 5764 5782 5796 5807 5815 5819 5820 5821 5820 5818 5816 5813 5810 5808 5805 5801 5797 5794 5792 5790 5788 5785 5782 5779 5777 5776 5775 5775 5775 5775 5774 5773 5772 5770 5769 5767 5765 5763 5761 5759 5756
5796 5770 5745 5741 5732 5738 5761 5758 5768 5801 5811 5816 5819 5822 5824 5824 5821 5819 5816 5813 5811 5808 5805 5802 5798 5794 5793 5791 5788 5787 5784 5781 5779 5777 5775 5774 5773 5773 5773 5772 5771 5770 5768 5766 5765 5763 5761 5759 5756
5784 5773 5744 5731 5728 5739 5756 5755 5784 5812 5818 5822 5824 5825 5826 5824 5823 5821 5820 5817 5814 5811 5807 5803 5798 5795 5793 5791 5789 5787 5785 5783 5781 5779 5777 5775 5774 5773 5773 5772 5770 5769 5768 5766 5764 5762 5761 5759 5756
5778 5768 5772 5747 5740 5737 5745 5763 5789 5812 5814 5816 5818 5821 5823 5824 5824 5823 5822 5820 5816 5812 5809 5805 5801 5797 5795 5793 5790 5787 5785 5783 5781 5780 5778 5777 5776 5774 5773 5771 5769 5768 5766 5765 5763 5761 5759 5758 5756
5788 5773 5754 5742 5728 5727 5743 5754 5768 5794 5802 5808 5811 5816 5820 5823 5823 5823 5822 5820 5818 5815 5811 5807 5803 5799 5796 5794 5791 5788 5786 5784 5782 5779 5777 5776 5776 5775 5773 5771 5768 5766 5765 5763 5761 5758 5757 5755 5753
5773 5765 5753 5740 5740 5728 5728 5751 5792 5795 5802 5805 5809 5814 5818 5820 5821 5820 5820 5819 5817 5814 5810 5805 5802 5798 5795 5793 5791 5788 5786 5784 5781 5779 5778 5776 5775 5774 5772 5770 5768 5765 5762 5760 5758 5755 5754 5752 5750
5779 5768 5755 5745 5737 5732 5732 5754 5802 5801 5804 5806 5809 5813 5816 5817 5818 5817 5816 5815 5813 5810 5808 5805 5803 5799 5796 5793 5790 5787 5785 5782 5780 5778 5777 5775 5774 5772 5770 5768 5765 5763 5761 5758 5756 5753 5751 5749 5746